weather.gov     
National Weather Service

Terminal Aerodrome Forecast
NWS Homepage
This page is being discontinued on March 12, 2014.
The same data is available at this site. Please update your bookmarks.
Thank you, and we apologize for the inconvenience.
Please send an email to SR-SRH.Webmaster@noaa.gov with any concerns.


Current Version
Previous Version:    01  02  03  04  05  06  07  08  09  10  11  12  13  14  15  16  17  18  19  20  21  22  23  24  25  26  27  28  29  30  
   31  32  33  34  35  
[Printable]
626
FTUS43 KDTX 231730
TAFPTK
TAF
KPTK 231730Z 2318/2418 15007KT P6SM OVC100
     FM232300 15010KT 4SM -SHRA BR OVC015
     FM240200 13013KT 2SM RA BR OVC008
     FM240500 15015KT 2SM RA BR OVC004
     FM241100 21015G25KT 4SM -SHRA OVC008
     FM241400 21020G30KT 6SM -SHRA SCT025 BKN040=


626
FTUS43 KDTX 231730
TAFPTK
TAF
KPTK 231730Z 2318/2418 15007KT P6SM OVC100
     FM232300 15010KT 4SM -SHRA BR OVC015
     FM240200 13013KT 2SM RA BR OVC008
     FM240500 15015KT 2SM RA BR OVC004
     FM241100 21015G25KT 4SM -SHRA OVC008
     FM241400 21020G30KT 6SM -SHRA SCT025 BKN040=




U.S. Dept. of Commerce
NOAA National Weather Service
1325 East West Highway
Silver Spring, MD 20910
E-mail: w-nws.webmaster@noaa.gov
Page last modified: May 16, 2007
NATIONAL WEATHER SERVICE: for Safety, for Work, for Fun - FOR LIFE